Regional Weather Roundup
Issued by NWS

Home | Current Version | Previous Version | Text Only | Print | Product List | Glossary On
Versions: 1 2 3 4 5 6 7 8 9 10 11 12 13 14 15 16 17 18 19 20 21 22 23 24 25 26 27 28 29 30 31 32 33 34 35 36 37 38 39 40 41 42 43 44 45 46 47 48 49 50
000
ASUS44 KEWX 271311
RWRTX
SOUTH TEXAS REGIONAL WEATHER ROUNDUP
NATIONAL WEATHER SERVICE AUSTIN/SAN ANTONIO TX
800 AM CDT MON APR 27 2015

NOTE: "FAIR" INDICATED FEW OR NO CLOUDS BELOW 12,000 FEET WITH NO
SIGNIFICANT WEATHER AND/OR OBSTRUCTIONS TO VISIBILITY.

* - THESE STATIONS ARE NOT NWS OR FAA STATIONS...AND ARE NOT SUBJECT
    TO NWS AND FAA QUALITY CONTROL.

TXZ171-172-183>190-271400-
TEXAS HILL COUNTRY AND EDWARDS PLATEAU

CITY           SKY/WX    TMP DP  RH WIND       PRES   REMARKS
JUNCTION       SUNNY     57  55  93 CALM      29.73R
*LLANO         PTSUNNY   63  61  94 NW5       29.75R
BURNET         CLOUDY    63  60  90 CALM      29.74R
*HORSESHOE BAY MOSUNNY   62  60  94 CALM      29.72R
*KERRVILLE     MOSUNNY   59  56  92 NW10      29.73R
*FREDERICKSBRG PTSUNNY   60  57  91 NW9       29.73R
*ROCKSPRINGS   SUNNY     57  52  82 CALM      29.78R
*BOERNE STAGE  MOSUNNY   61  55  82 NW5       29.72R
*CASTROVILLE   SUNNY     63  60  92 NW14      29.70R
HONDO          PTSUNNY   63  59  87 NW8       29.71R
*UVALDE        NOT AVBL
DEL RIO        SUNNY     60  42  51 NW5       29.73R
LAUGHLIN AFB   SUNNY     60  48  63 NW7       29.74R
CARRIZO SPRGS  MOSUNNY   63  52  67 NW5       29.71R
$$

TXZ173-191>194-202-209-217>225-228-271400-
CENTRAL AND SOUTH CENTRAL TEXAS

CITY           SKY/WX    TMP DP  RH WIND       PRES   REMARKS
GEORGETOWN     CLOUDY    63  59  88 N3        29.70R
AUSTIN/BERGSTM PTSUNNY   64  63  96 NE3       29.68R
AUSTIN/MABRY   CLOUDY    64  62  93 VRB3      29.69R
*AUSTIN/EXEC   CLOUDY    63  63 100 E6        29.68S
*LAGO VISTA    CLOUDY    62  61  95 N3        29.72R
SAN MARCOS     PTSUNNY   64  61  88 MISG      29.69R
NEW BRAUNFELS  PTSUNNY   65  62  90 N6        29.67R
RANDOLPH AFB   MOSUNNY   63  62  96 N8        29.68R
PT SAN ANTONIO SUNNY     63  62  97 VRB2      29.66R
SAN ANTONIO    PTSUNNY   64  59  83 NW9       29.67R
STINSON FIELD  SUNNY     64  63  96 W3        29.66R
*PLEASANTON    SUNNY     63  61  92 NW5       29.68R
*LA GRANGE     PTSUNNY   66  65  96 N5        29.66R
*GIDDINGS      MOSUNNY   64  63  94 NE5       29.71S
*GONZALES      MOSUNNY   65  65  99 NE6       29.66S
$$

TXZ163>164-176>182-195>201-210>213-226-227-235-271400-
SOUTHEAST TEXAS

CITY           SKY/WX    TMP DP  RH WIND       PRES   REMARKS
COLLEGE STN    SUNNY     65  62  90 NE8       29.67R
*BRYAN         MOSUNNY   64  63  95 E5        29.69S
*CALDWELL      SUNNY     63  63 100 NW5       29.71S
*CROCKETT      NOT AVBL
*BRENHAM       MOSUNNY   67  65  94 N3        29.68R
HUNTSVILLE     CLOUDY    65  63  93 E8        29.69R
CONROE         PTSUNNY   65  61  87 VRB6      29.69R
HOUSTON BUSH   PTSUNNY   67  63  87 NE9       29.66R
HOUSTON HOBBY  CLOUDY    69  64  84 NE9       29.64S
*HOUSTON SW AP CLOUDY    69  66  92 NE6       29.65S
PEARLAND       CLOUDY    70  65  84 NE9       29.66R
HOUSTON HOOKS  CLOUDY    66  63  90 N6        29.66R
ELLINGTON FLD  CLOUDY    70  66  88 NE12      29.67R
SUGAR LAND     CLOUDY    69  63  81 NE9       29.63R
*HOUSTON EXEC  CLOUDY    66  64  94 NE9       29.65S
*CLEVELAND MUN NOT AVBL
*WHARTON       CLOUDY    70  67  90 NE6       29.64R
*COLUMBUS      PTSUNNY   66  64  93 NE5       29.64R
$$

TXZ214>216-236>238-271400-
THE UPPER TEXAS COAST

CITY           SKY/WX    TMP DP  RH WIND       PRES   REMARKS
*ORANGE        CLOUDY    66  62  86 N5        29.72S
PORT ARTHUR    TSTM      67  64  90 N12       29.67F
GALVESTON      CLOUDY    73  69  87 N20G25    29.65R
ANGLETON       LGT RAIN  70  70 100 N13G22    29.63R FOG
*BAY CITY      CLOUDY    77  77 100 NE7       29.61F FOG
PALACIOS       CLOUDY    77  76  96 NE10      29.60R FOG
$$

TXZ229>234-239>247-271400-
TEXAS COASTAL BEND AND RIO GRANDE PLAINS

CITY           SKY/WX    TMP DP  RH WIND       PRES   REMARKS
VICTORIA       CLOUDY    68  67  96 N8        29.63R
*BEEVILLE      CLOUDY    69  66  90 N6        29.63R
ROCKPORT       CLOUDY    78  76  93 E10       29.57S FOG
*PORT ARANSAS  CLOUDY    76  76  99 NE6       29.58R FOG
*PORT LAVACA   CLOUDY    72  70  94 N13       29.62R
*INGLESIDE       N/A     79  76  92 NE7       29.58R FOG
CORPUS CHRISTI CLOUDY    78  74  87 NE9       29.56R FOG
CORPUS NAS     FOG       77  76  96 NE13      29.57R VSB 1
*ROBSTOWN      CLOUDY    75  71  88 MISG      29.61R
ALICE          CLOUDY    73  65  75 N13       29.62R
KINGSVILLE NAS CLOUDY    74  71  91 NW17      29.61R FOG
COTULLA        MOSUNNY   64  56  75 NW8       29.69R
*FAITH RANCH   SUNNY     64  48  55 NW10      29.72R
LAREDO         MOSUNNY   69  49  48 NW15      29.70R
$$

TXZ248>255-271400-
DEEP SOUTH TEXAS

CITY           SKY/WX    TMP DP  RH WIND       PRES   REMARKS
BROWNSVILLE    CLOUDY    81  78  91 W10       29.56R FOG
PORT ISABEL    CLOUDY    81  77  88 NW7       29.55R FOG
*SOUTH PADRE     N/A    N/A N/A N/A MISG        N/A
HARLINGEN      CLOUDY    81  79  94 N6        29.55R FOG     HX  90
*HEBBRONVILLE  CLOUDY    69  66  90 NW13G20   29.67R
MCALLEN        CLOUDY    82  77  84 NW6       29.57R HAZE    HX  90
*WESLACO       CLOUDY    79  76  91 CALM      29.55R FOG
FALFURRIAS     CLOUDY    74  67  77 NW12      29.60R
EDINBURG       NOT AVBL
*ZAPATA        CLOUDY    71  48  44 NW10G20   29.66R
$$

TXZ213>215-236>238-242>244-246-247-251-254-255-271400-
CMAN STATIONS

STATION/POSITION TIME  TEMP    WIND        PRES    WAVE
                       AIR SEA DIR/SP/G            HT/PER
                 (UTC) (F)     (DEG/KT/KT) (MB)    (FT/S)
$$

GMZ080-GMZ150>470-271400-
OFFSHORE BUOY REPORTS

STATION/POSITION TIME  TEMP    WIND        PRES    WAVE
                       AIR SEA DIR/SP/G            HT/PER
                 (UTC) (F)     (DEG/KT/KT) (MB)    (FT/S)
$$


USA.gov is the U.S. government's official web portal to all federal, state and local government web resources and services.